KC3BAN-13 Weather Reports


Display with metric or nautical units.
time (UTC)temp
F
wind
direction
speed
MPH
gust
MPH
rain 1hr
in
rain 24hr
in
rain mn
in
humidity
%
barometer
mb
20260901230550 87 223 0.0 0.0 0.00 0.00 0.00 71 1006.1
20260901230050 88 223 0.0 0.0 0.00 0.00 0.00 69 1006.1
20260901225551 89 223 0.0 0.0 0.00 0.00 0.00 67 1006.2
20260901225047 89 223 0.0 0.0 0.00 0.00 0.00 65 1006.3
20260901224547 90 223 0.0 0.0 0.00 0.00 0.00 64 1006.2
20260901223805 92 223 0.0 1.0 0.00 0.00 0.00 59 1006.1
20260901223047 92 223 0.0 2.0 0.00 0.00 0.00 57 1006.1
20260901222547 92 223 1.0 4.0 0.00 0.00 0.00 56 1006.2
20260901222047 93 228 1.0 7.0 0.00 0.00 0.00 56 1006.2
20260901221547 93 253 1.0 7.0 0.00 0.00 0.00 55 1006.2
20260901221048 93 250 1.0 6.0 0.00 0.00 0.00 53 1006.2
20260901215544 95 195 1.0 3.0 0.00 0.00 0.00 54 1006.3
20260901215043 94 166 0.0 2.0 0.00 0.00 0.00 55 1006.3
20260901214543 94 343 0.0 3.0 0.00 0.00 0.00 56 1006.3
20260901214043 94 343 0.0 3.0 0.00 0.00 0.00 54 1006.4
20260901213817 94 268 0.0 2.0 0.00 0.00 0.00 53 1006.4
20260901213043 94 174 0.0 2.0 0.00 0.00 0.00 51 1006.4
20260901212544 95 210 0.0 2.0 0.00 0.00 0.00 52 1006.4
20260901212040 96 213 0.0 2.0 0.00 0.00 0.00 52 1006.4
20260901211540 96 131 1.0 6.0 0.00 0.00 0.00 51 1006.5
20260901211040 95 163 1.0 6.0 0.00 0.00 0.00 51 1006.4
20260901210540 95 172 0.0 3.0 0.00 0.00 0.00 52 1006.5
20260901210040 95 224 0.0 2.0 0.00 0.00 0.00 51 1006.6
20260901205539 95 214 0.0 3.0 0.00 0.00 0.00 51 1006.6
20260901205040 95 245 1.0 5.0 0.00 0.00 0.00 50 1006.7
20260901204540 96 226 1.0 5.0 0.00 0.00 0.00 50 1006.6
20260901204040 96 215 1.0 4.0 0.00 0.00 0.00 53 1006.6
20260901203539 95 220 1.0 3.0 0.00 0.00 0.00 50 1006.7
20260901203040 95 223 0.0 3.0 0.00 0.00 0.00 52 1006.7
20260901202540 95 217 0.0 3.0 0.00 0.00 0.00 56 1006.7
20260901202305 95 190 0.0 1.0 0.00 0.00 0.00 57 1006.8
20260901201803 96 171 1.0 3.0 0.00 0.00 0.00 53 1006.7
20260901201040 97 226 1.0 3.0 0.00 0.00 0.00 48 1006.8
20260901200802 97 214 1.0 5.0 0.00 0.00 0.00 49 1006.9
20260901200042 97 219 1.0 5.0 0.00 0.00 0.00 53 1007.0
20260901195538 97 244 1.0 5.0 0.00 0.00 0.00 51 1007.0
20260901195250 97 186 1.0 3.0 0.00 0.00 0.00 50 1007.1
20260901194527 97 186 1.0 3.0 0.00 0.00 0.00 49 1007.0
20260901194022 96 175 1.0 3.0 0.00 0.00 0.00 51 1007.1
20260901193515 96 162 1.0 5.0 0.00 0.00 0.00 52 1007.2
20260901193009 95 89 1.0 5.0 0.00 0.00 0.00 53 1007.4
20260901192722 95 204 2.0 7.0 0.00 0.00 0.00 50 1007.4
20260901191957 95 204 2.0 7.0 0.00 0.00 0.00 53 1007.5
20260901191453 95 72 1.0 5.0 0.00 0.00 0.00 54 1007.6
20260901190945 95 63 1.0 8.0 0.00 0.00 0.00 55 1007.5
20260901190440 95 51 1.0 8.0 0.00 0.00 0.00 55 1007.5
20260901185937 95 103 1.0 6.0 0.00 0.00 0.00 56 1007.6
20260901185438 95 229 0.0 4.0 0.00 0.00 0.00 54 1007.6
20260901184937 94 128 0.0 1.0 0.00 0.00 0.00 54 1007.7
20260901184435 94 122 0.0 1.0 0.00 0.00 0.00 59 1007.6
20260901183933 94 122 0.0 1.0 0.00 0.00 0.00 56 1007.6
20260901183433 94 122 0.0 2.0 0.00 0.00 0.00 57 1007.6
20260901182933 94 145 1.0 3.0 0.00 0.00 0.00 57 1007.6
20260901182434 94 143 1.0 4.0 0.00 0.00 0.00 57 1007.6
20260901181933 94 226 1.0 7.0 0.00 0.00 0.00 58 1007.6
20260901181432 93 221 1.0 7.0 0.00 0.00 0.00 60 1007.6
20260901180933 92 225 0.0 5.0 0.00 0.00 0.00 60 1007.7
20260901180431 92 264 1.0 4.0 0.00 0.00 0.00 62 1007.8
20260901175931 91 211 1.0 4.0 0.00 0.00 0.00 64 1007.8
20260901175653 91 180 0.0 0.0 0.00 0.00 0.00 67 1007.8
20260901174930 91 180 0.0 0.0 0.00 0.00 0.00 64 1007.8
20260901174427 91 180 0.0 0.0 0.00 0.00 0.00 66 1007.9
20260901173925 91 180 0.0 2.0 0.00 0.00 0.00 66 1007.9
20260901173423 91 180 0.0 2.0 0.00 0.00 0.00 63 1007.9
20260901172923 91 171 0.0 2.0 0.00 0.00 0.00 64 1007.9
20260901172416 91 184 0.0 2.0 0.00 0.00 0.00 63 1007.8
20260901171910 91 241 0.0 4.0 0.00 0.00 0.00 64 1008.0
20260901171631 91 162 1.0 4.0 0.00 0.00 0.00 61 1008.1
20260901171126 91 129 1.0 4.0 0.00 0.00 0.00 64 1008.2
20260901170353 92 139 1.0 4.0 0.00 0.00 0.00 60 1008.1
20260901165847 92 335 1.0 5.0 0.00 0.00 0.00 60 1008.2
20260901165341 91 207 1.0 5.0 0.00 0.00 0.00 60 1008.2
20260901164330 91 166 2.0 7.0 0.00 0.00 0.00 61 1008.2
20260901164041 91 73 2.0 9.0 0.00 0.00 0.00 61 1008.3
20260901163318 91 197 2.0 9.0 0.00 0.00 0.00 63 1008.4
20260901162810 91 218 2.0 8.0 0.00 0.00 0.00 62 1008.3
20260901162306 91 74 1.0 8.0 0.00 0.00 0.00 61 1008.4
20260901161759 90 205 1.0 8.0 0.00 0.00 0.00 64 1008.5
20260901161253 90 51 2.0 10.0 0.00 0.00 0.00 63 1008.6
20260901160747 90 195 2.0 10.0 0.00 0.00 0.00 61 1008.7
20260901160241 90 319 1.0 7.0 0.00 0.00 0.00 63 1008.6
20260901155953 90 166 2.0 7.0 0.00 0.00 0.00 65 1008.8
20260901155230 90 233 1.0 6.0 0.00 0.00 0.00 63 1008.8
20260901154723 90 179 1.0 5.0 0.00 0.00 0.00 65 1008.8
20260901154217 89 161 2.0 6.0 0.00 0.00 0.00 65 1009.0
20260901153711 89 180 2.0 8.0 0.00 0.00 0.00 63 1008.9
20260901153205 89 218 2.0 8.0 0.00 0.00 0.00 65 1008.9
20260901152700 88 198 1.0 6.0 0.00 0.00 0.00 67 1009.0
20260901152414 88 162 2.0 8.0 0.00 0.00 0.00 66 1009.1
20260901151646 88 213 2.0 10.0 0.00 0.00 0.00 66 1009.1
20260901151141 88 173 2.0 10.0 0.00 0.00 0.00 68 1009.1
20260901150634 87 145 2.0 7.0 0.00 0.00 0.00 71 1009.1
20260901150130 87 155 2.0 5.0 0.00 0.00 0.00 71 1009.2
20260901145623 87 297 1.0 5.0 0.00 0.00 0.00 71 1009.3
20260901145340 86 141 1.0 6.0 0.00 0.00 0.00 73 1009.3
20260901144611 86 184 2.0 7.0 0.00 0.00 0.00 72 1009.3
20260901144324 86 181 1.0 7.0 0.00 0.00 0.00 75 1009.3
20260901143825 85 213 0.0 3.0 0.00 0.00 0.00 76 1009.3
20260901143053 85 250 1.0 4.0 0.00 0.00 0.00 77 1009.1
20260901142547 84 195 1.0 4.0 0.00 0.00 0.00 79 1009.1
20260901142041 84 200 0.0 3.0 0.00 0.00 0.00 81 1009.2
20260901141535 84 214 0.0 2.0 0.00 0.00 0.00 80 1009.2
20260901141030 83 215 0.0 2.0 0.00 0.00 0.00 80 1009.3
20260901140017 83 211 1.0 5.0 0.00 0.00 0.00 82 1009.0
20260901135511 82 240 1.0 5.0 0.00 0.00 0.00 83 1009.1
20260901135005 81 141 2.0 6.0 0.00 0.00 0.00 84 1009.3
20260901134500 81 226 2.0 7.0 0.00 0.00 0.00 84 1009.3
20260901133953 80 179 1.0 7.0 0.00 0.00 0.00 83 1009.3
20260901133446 80 165 1.0 5.0 0.00 0.00 0.00 81 1009.4
20260901133204 79 214 1.0 5.0 0.00 0.00 0.00 80 1009.4
20260901132435 79 300 1.0 4.0 0.00 0.00 0.00 78 1009.5
20260901131931 78 218 1.0 4.0 0.00 0.00 0.00 77 1009.5
20260901130917 78 199 1.0 4.0 0.00 0.00 0.00 73 1009.7
20260901130411 78 219 1.0 4.0 0.00 0.00 0.00 71 1009.7
20260901125905 77 208 1.0 4.0 0.00 0.00 0.00 71 1009.7
20260901125400 77 154 0.0 3.0 0.00 0.00 0.00 70 1009.7
20260901124852 77 222 1.0 4.0 0.00 0.00 0.00 70 1009.7
20260901124611 77 215 0.0 4.0 0.00 0.00 0.00 70 1009.7
20260901123841 77 205 0.0 2.0 0.00 0.00 0.00 69 1009.7
20260901123334 76 233 1.0 3.0 0.00 0.00 0.00 70 1009.7
20260901123100 76 201 1.0 3.0 0.00 0.00 0.00 70 1009.7
20260901122323 76 233 1.0 3.0 0.00 0.00 0.00 71 1009.7
20260901121817 76 208 1.0 4.0 0.00 0.00 0.00 71 1009.6
20260901121534 76 217 1.0 4.0 0.00 0.00 0.00 71 1009.6
20260901120805 76 262 1.0 4.0 0.00 0.00 0.00 71 1009.6
20260901120520 75 205 1.0 3.0 0.00 0.00 0.00 71 1009.6
20260901115753 75 195 0.0 2.0 0.00 0.00 0.00 71 1009.6
20260901115247 75 211 0.0 2.0 0.00 0.00 0.00 71 1009.6
20260901114741 74 212 0.0 2.0 0.00 0.00 0.00 71 1009.5
20260901114458 74 208 0.0 1.0 0.00 0.00 0.00 71 1009.4
20260901113731 74 208 0.0 0.0 0.00 0.00 0.00 71 1009.5
20260901113222 74 208 0.0 1.0 0.00 0.00 0.00 71 1009.4
20260901112717 74 208 0.0 1.0 0.00 0.00 0.00 71 1009.4
20260901112211 74 208 0.0 0.0 0.00 0.00 0.00 71 1009.4
20260901111705 74 208 0.0 0.0 0.00 0.00 0.00 71 1009.4
20260901111200 74 208 0.0 0.0 0.00 0.00 0.00 71 1009.5
20260901110653 74 208 0.0 0.0 0.00 0.00 0.00 71 1009.5
20260901110147 74 208 0.0 0.0 0.00 0.00 0.00 71 1009.5
20260901105642 74 208 0.0 1.0 0.00 0.00 0.00 71 1009.5
20260901105357 74 208 0.0 1.0 0.00 0.00 0.00 71 1009.5
20260901104629 74 208 0.0 1.0 0.00 0.00 0.00 71 1009.4
20260901103617 74 208 0.0 1.0 0.00 0.00 0.00 71 1009.3
20260901103110 74 208 0.0 1.0 0.00 0.00 0.00 71 1009.1
20260901102605 74 208 0.0 1.0 0.00 0.00 0.00 71 1009.2
20260901102100 74 208 0.0 1.0 0.00 0.00 0.00 71 1009.1
20260901101553 74 208 0.0 0.0 0.00 0.00 0.00 71 1009.0
20260901101046 74 208 0.0 0.0 0.00 0.00 0.00 71 1008.9
20260901100541 74 208 0.0 0.0 0.00 0.00 0.00 71 1008.9
20260901100034 74 208 0.0 1.0 0.00 0.00 0.00 71 1008.9
20260901095530 74 208 0.0 1.0 0.00 0.00 0.00 71 1008.8
20260901095022 74 208 0.0 1.0 0.00 0.00 0.00 71 1008.8
20260901094516 74 208 0.0 1.0 0.00 0.00 0.00 71 1009.0
20260901094011 74 208 0.0 1.0 0.00 0.00 0.00 71 1009.1
20260901093505 74 281 0.0 1.0 0.00 0.00 0.00 71 1009.2
20260901093001 74 214 0.0 1.0 0.00 0.00 0.00 71 1009.2
20260901092453 74 214 0.0 0.0 0.00 0.00 0.00 71 1009.3
20260901091947 74 214 0.0 1.0 0.00 0.00 0.00 71 1009.3
20260901091442 74 214 0.0 1.0 0.00 0.00 0.00 71 1009.3
20260901090935 74 214 0.0 0.0 0.00 0.00 0.00 71 1009.4
20260901090430 74 214 0.0 1.0 0.00 0.00 0.00 71 1009.4
20260901085923 74 214 0.0 1.0 0.00 0.00 0.00 71 1009.3
20260901085417 74 214 0.0 0.0 0.00 0.00 0.00 71 1009.3
20260901084910 74 214 0.0 0.0 0.00 0.00 0.00 71 1009.2
20260901084411 74 214 0.0 0.0 0.00 0.00 0.00 71 1009.2
20260901083910 74 214 0.0 0.0 0.00 0.00 0.00 71 1009.1
20260901083406 74 214 0.0 0.0 0.00 0.00 0.00 71 1009.2
20260901082905 74 214 0.0 0.0 0.00 0.00 0.00 70 1009.2
20260901082403 74 214 0.0 0.0 0.00 0.00 0.00 70 1009.3
20260901081901 74 214 0.0 0.0 0.00 0.00 0.00 70 1009.2
20260901081400 74 214 0.0 0.0 0.00 0.00 0.00 70 1009.2
20260901080859 74 214 0.0 0.0 0.00 0.00 0.00 70 1009.1
20260901080355 74 214 0.0 0.0 0.00 0.00 0.00 70 1009.1
20260901080120 74 214 0.0 0.0 0.00 0.00 0.00 70 1009.1
20260901075616 74 214 0.0 0.0 0.00 0.00 0.00 70 1009.2
20260901074351 74 214 0.0 0.0 0.00 0.00 0.00 70 1009.4
20260901073347 74 214 0.0 1.0 0.00 0.00 0.00 70 1009.5
20260901072846 74 214 0.0 0.0 0.00 0.00 0.00 70 1009.5
20260901072612 74 214 0.0 0.0 0.00 0.00 0.00 70 1009.6
20260901071842 74 214 0.0 1.0 0.00 0.00 0.00 70 1009.6
20260901071343 74 214 0.0 1.0 0.00 0.00 0.00 70 1009.6
20260901070843 74 214 0.0 1.0 0.00 0.00 0.00 70 1009.6
20260901070343 74 234 0.0 1.0 0.00 0.00 0.00 70 1009.7
20260901065843 74 234 0.0 0.0 0.00 0.00 0.00 70 1009.7
20260901065343 74 234 0.0 1.0 0.00 0.00 0.00 70 1009.8
20260901064843 74 234 0.0 1.0 0.00 0.00 0.00 70 1009.8
20260901064342 74 234 0.0 1.0 0.00 0.00 0.00 70 1009.9
20260901063842 74 234 0.0 1.0 0.00 0.00 0.00 70 1009.9
20260901063339 74 248 0.0 1.0 0.00 0.00 0.00 70 1009.7
20260901062840 74 62 0.0 0.0 0.00 0.00 0.00 70 1009.7
20260901062339 74 62 0.0 1.0 0.00 0.00 0.00 70 1009.6
20260901061840 74 62 0.0 1.0 0.00 0.00 0.00 70 1009.7
20260901061340 73 62 0.0 0.0 0.00 0.00 0.00 71 1009.9
20260901060840 74 62 0.0 0.0 0.00 0.00 0.00 70 1009.9
20260901060339 74 62 0.0 0.0 0.00 0.00 0.00 71 1009.9
20260901055339 74 62 0.0 0.0 0.00 0.00 0.00 70 1009.9
20260901054841 74 62 0.0 0.0 0.00 0.00 0.00 70 1010.0
20260901054339 74 62 0.0 0.0 0.00 0.00 0.00 70 1010.1
20260901054112 74 62 0.0 0.0 0.00 0.00 0.00 70 1010.1
20260901053339 74 62 0.0 0.0 0.00 0.00 0.00 70 1010.1
20260901052840 74 62 0.0 0.0 0.00 0.00 0.00 70 1010.2
20260901052339 74 62 0.0 0.0 0.00 0.00 0.00 71 1010.2
20260901051840 74 62 0.0 0.0 0.00 0.00 0.00 71 1010.3
20260901051340 74 62 0.0 0.0 0.00 0.00 0.00 70 1010.3
20260901050840 74 62 0.0 0.0 0.00 0.00 0.00 70 1010.4
20260901050340 74 62 0.0 0.0 0.00 0.00 0.00 70 1010.4
20260901045339 74 62 0.0 0.0 0.00 0.00 0.00 71 1010.6
20260901044840 74 62 0.0 0.0 0.00 0.00 0.00 71 1010.6
20260901044340 74 62 0.0 0.0 0.00 0.00 0.00 71 1010.5
20260901044100 74 62 0.0 0.0 0.00 0.00 0.00 70 1010.6
20260901043339 74 62 0.0 0.0 0.00 0.00 0.00 70 1010.6
20260901042838 74 62 0.0 0.0 0.00 0.00 0.00 70 1010.7
20260901041833 74 62 0.0 0.0 0.00 0.00 0.00 70 1010.8
20260901041329 74 62 0.0 0.0 0.00 0.00 0.00 70 1010.7
20260901040823 75 62 0.0 0.0 0.00 0.00 0.00 70 1010.7
20260901040534 74 62 0.0 0.0 0.00 0.00 0.00 70 1010.7
20260901035810 74 62 0.0 0.0 0.00 0.00 0.00 71 1010.6
20260901035306 74 62 0.0 0.0 0.00 0.00 0.00 71 1010.7
20260901034758 75 62 0.0 0.0 0.00 0.00 0.00 71 1010.7
20260901034522 75 62 0.0 0.0 0.00 0.00 0.00 71 1010.8
20260901033746 75 62 0.0 0.0 0.00 0.00 0.00 71 1010.7
20260901033241 75 62 0.0 0.0 0.00 0.00 0.00 71 1010.6
20260901032959 75 62 0.0 0.0 0.00 0.00 0.00 71 1010.6
20260901032228 75 62 0.0 0.0 0.00 0.00 0.00 71 1010.6
20260901031723 75 62 0.0 0.0 0.00 0.00 0.00 71 1010.7
20260901031216 75 62 0.0 0.0 0.00 0.00 0.00 71 1010.7
20260901030710 75 62 0.0 0.0 0.00 0.00 0.00 71 1010.7
20260901030204 75 62 0.0 0.0 0.00 0.00 0.00 71 1010.7
20260901025925 75 62 0.0 0.0 0.00 0.00 0.00 72 1010.6
20260901025422 75 62 0.0 0.0 0.00 0.00 0.00 72 1010.6
20260901024654 75 62 0.0 0.0 0.00 0.00 0.00 73 1010.5
20260901024152 75 62 0.0 0.0 0.00 0.00 0.00 72 1010.4
20260901023650 75 62 0.0 0.0 0.00 0.00 0.00 74 1010.5
20260901023411 75 62 0.0 0.0 0.00 0.00 0.00 74 1010.5
20260901022646 75 62 0.0 0.0 0.00 0.00 0.00 74 1010.7
20260901022143 75 62 0.0 0.0 0.00 0.00 0.00 74 1010.7
20260901021641 75 62 0.0 0.0 0.00 0.00 0.00 74 1010.7
20260901021140 75 62 0.0 0.0 0.00 0.00 0.00 74 1010.7
20260901020640 75 62 0.0 0.0 0.00 0.00 0.00 75 1010.6
20260901015902 75 62 0.0 0.0 0.00 0.00 0.00 76 1010.6
20260901015140 75 62 0.0 0.0 0.00 0.00 0.00 76 1010.6
20260901014640 75 62 0.0 0.0 0.00 0.00 0.00 76 1010.6
20260901014400 75 62 0.0 0.0 0.00 0.00 0.00 77 1010.6
20260901013905 75 62 0.0 0.0 0.00 0.00 0.00 77 1010.7
20260901013140 76 62 0.0 0.0 0.00 0.00 0.00 78 1010.7
20260901012638 76 62 0.0 0.0 0.00 0.00 0.00 78 1010.8
20260901012138 76 62 0.0 0.0 0.00 0.00 0.00 77 1010.8
20260901011631 76 62 0.0 0.0 0.00 0.00 0.00 78 1010.7
20260901011125 76 62 0.0 0.0 0.00 0.00 0.00 78 1010.7
20260901010844 76 62 0.0 0.0 0.00 0.00 0.00 79 1010.7
20260901010113 76 62 0.0 0.0 0.00 0.00 0.00 79 1010.7
20260901005607 76 62 0.0 0.0 0.00 0.00 0.00 79 1010.6
20260901005101 76 62 0.0 0.0 0.00 0.00 0.00 80 1010.5
20260901004812 76 62 0.0 0.0 0.00 0.00 0.00 80 1010.4
20260901004049 76 62 0.0 0.0 0.00 0.00 0.00 80 1010.3
20260901003808 76 62 0.0 0.0 0.00 0.00 0.00 80 1010.4
20260901003040 76 62 0.0 0.0 0.00 0.00 0.00 81 1010.3
20260901002540 77 62 0.0 0.0 0.00 0.00 0.00 82 1010.3
20260901002305 77 62 0.0 0.0 0.00 0.00 0.00 82 1010.3
20260901001537 77 62 0.0 0.0 0.00 0.00 0.00 82 1010.3
20260901001037 77 62 0.0 0.0 0.00 0.00 0.00 83 1010.3
20260901000536 77 62 0.0 0.0 0.00 0.00 0.00 83 1010.3
20260901000035 77 62 0.0 0.0 0.00 0.00 0.00 83 1010.3
20260831235536 77 62 0.0 0.0 0.00 0.00 0.00 83 1010.3
20260831235036 78 62 0.0 0.0 0.00 0.00 0.00 83 1010.2
20260831234535 78 62 0.0 0.0 0.00 0.00 0.00 84 1010.3
20260831234036 78 62 0.0 0.0 0.00 0.00 0.00 84 1010.3
20260831233532 78 62 0.0 0.0 0.00 0.00 0.00 84 1010.4
20260831233032 78 62 0.0 0.0 0.00 0.00 0.00 84 1010.4
20260831232532 79 62 0.0 0.0 0.00 0.00 0.00 84 1010.4
20260831232031 79 62 0.0 0.0 0.00 0.00 0.00 84 1010.5
20260831231532 79 62 0.0 0.0 0.00 0.00 0.00 84 1010.6